Gainesville, GA

12:35 PM EDT on August 31, 2016 (GMT -0400)
Gilmer Memorial

Weather History for KGVL - October, 2011

Change the Weather History Date:

Monday, October 3, 2011

  Actual Average Record
Temperature  
Mean Temperature 60 °F 66 °F  
Max Temperature 73 °F 75 °F 92 °F (1954)
Min Temperature 48 °F 56 °F 33 °F (1974)
Degree Days  
Heating Degree Days 4 2  
Month to date heating degree days 6  
Since 1 July heating degree days 19  
Cooling Degree Days 0 3  
Month to date cooling degree days 9  
Year to date cooling degree days 1550  
Growing Degree Days 10 (Base 50)    
Moisture  
Dew Point 32 °F    
Average Humidity 39    
Maximum Humidity 66    
Minimum Humidity 14    
Precipitation  
Precipitation 0.00 in 0.17 in 2.55 in (2015)
Month to date precipitation 0.53  
Year to date precipitation 41.46  
Sea Level Pressure  
Sea Level Pressure 30.15 in    
Wind  
Wind Speed 8 mph (NW)    
Max Wind Speed 15 mph    
Max Gust Speed 23 mph    
Visibility 10 miles    
Events      
T = Trace of Precipitation, MM = Missing Value Source: NWS Daily Summary

Daily Weather History Graph

Daily Weather History Graph

Search for Another Location

Airport or City:

Trip Planner

Search our weather history database for the weather conditions in past years. The results will help you decide how hot, cold, wet, or windy it might be!

Date:

Astronomy

Oct. 03, 2011 Rise Set
Actual Time 7:31 AM EDT 7:17 PM EDT
Civil Twilight 7:06 AM EDT 7:42 PM EDT
Nautical Twilight 6:37 AM EDT 8:11 PM EDT
Astronomical Twilight 6:07 AM EDT 8:40 PM EDT
Moon 2:14 PM EDT (10/3) No Moon Set
Length of Visible Light 12h 36m
Length of Day
11h 45m
Waxing Crescent, 45% of the Moon is Illuminated
Oct 3
Waxing Crescent
Oct 3
First Quarter
Oct 11
Full
Oct 19
Last Quarter
Oct 26
New

Hourly Weather History & Observations

Time (EDT) Temp. Dew Point Humidity Pressure Visibility Wind Dir Wind Speed Gust Speed Precip Events Conditions
1:53 AM 52.0 °F 36.0 °F 54% 30.12 in 10.0 mi NNW 5.8 mph - N/A   Clear
3:53 AM 48.9 °F 37.0 °F 64% 30.13 in 10.0 mi WNW 3.5 mph - N/A   Clear
4:53 AM 48.9 °F 36.0 °F 61% 30.13 in 10.0 mi WNW 5.8 mph - N/A   Clear
5:53 AM 48.0 °F 37.0 °F 66% 30.14 in 10.0 mi West 4.6 mph - N/A   Clear
6:53 AM 48.9 °F 36.0 °F 61% 30.15 in 10.0 mi WNW 8.1 mph - N/A   Clear
7:53 AM 48.0 °F 37.0 °F 66% 30.15 in 10.0 mi WNW 6.9 mph - N/A   Clear
8:53 AM 53.1 °F 37.0 °F 55% 30.17 in 10.0 mi WNW 8.1 mph - N/A   Clear
9:53 AM 57.9 °F 36.0 °F 44% 30.17 in 10.0 mi NW 11.5 mph - N/A   Clear
10:53 AM 62.1 °F 34.0 °F 35% 30.18 in 10.0 mi NNW 9.2 mph 19.6 mph N/A   Clear
11:53 AM 66.9 °F 23.0 °F 19% 30.17 in 10.0 mi NW 15.0 mph 21.9 mph N/A   Clear
12:53 PM 71.1 °F 19.9 °F 14% 30.15 in 10.0 mi NW 11.5 mph 20.7 mph N/A   Clear
2:53 PM 73.0 °F 24.1 °F 16% 30.11 in 10.0 mi NW 9.2 mph 18.4 mph N/A   Clear
3:53 PM 73.0 °F 21.0 °F 14% 30.11 in 10.0 mi NW 12.7 mph 23.0 mph N/A   Clear
4:53 PM 73.9 °F 21.9 °F 14% 30.10 in 10.0 mi North 12.7 mph 18.4 mph N/A   Clear
5:53 PM 72.0 °F 26.1 °F 18% 30.12 in 10.0 mi NW 11.5 mph - N/A   Clear
6:53 PM 68.0 °F 27.0 °F 21% 30.14 in 10.0 mi NW 10.4 mph - N/A   Clear
7:53 PM 64.0 °F 32.0 °F 30% 30.15 in 10.0 mi WNW 9.2 mph - N/A   Clear
9:53 PM 61.0 °F 36.0 °F 39% 30.18 in 10.0 mi NW 6.9 mph - N/A   Clear
10:53 PM 57.0 °F 37.9 °F 49% 30.18 in 10.0 mi NW 5.8 mph - N/A   Clear
11:53 PM 57.9 °F 37.0 °F 46% 30.18 in 10.0 mi NW 6.9 mph - N/A   Clear